When you browse on this site, cookies collect data to enhance your experience and personalize the content and advertising you see.
Visit our Privacy Policy to learn more. By continuing to use the site, you agree to this use of cookies and data.
  • In Switzerland
  • List of Countries
  • For 7 days
  • Water Temperature
  • Weather Map
  • Weather Widgets
  • user-avatar
    Login

    Hourly Weather Maykovo

    Today, 5 June, Friday

    Time Temperature Precipitation Wind Pressure Humidity
    00:00 +10°C° 0 mm 3 mps 740 mmHg 94%
    01:00 +9°C° 0 mm 3 mps 740 mmHg 95%
    02:00 +9°C° 0 mm 3 mps 740 mmHg 95%
    03:00 +10°C° 0 mm 3 mps 740 mmHg 94%
    04:00 +10°C° 0 mm 4 mps 740 mmHg 93%
    05:00 +11°C° 0 mm 4 mps 740 mmHg 92%
    06:00 +12°C° 0 mm 4 mps 740 mmHg 88%
    07:00 +14°C° 0 mm 5 mps 740 mmHg 84%
    08:00 +15°C° 0 mm 5 mps 740 mmHg 79%
    09:00 +15°C° 1 mm 6 mps 740 mmHg 80%
    10:00 +16°C° 1 mm 7 mps 740 mmHg 81%
    11:00 +16°C° 1 mm 7 mps 740 mmHg 82%
    12:00 +15°C° 1.8 mm 7 mps 740 mmHg 85%
    13:00 +14°C° 1.8 mm 6 mps 740 mmHg 89%
    14:00 +13°C° 1.8 mm 5 mps 740 mmHg 92%
    15:00 +13°C° 0.3 mm 5 mps 740 mmHg 90%
    16:00 +14°C° 0.3 mm 5 mps 740 mmHg 87%
    17:00 +15°C° 0.3 mm 5 mps 740 mmHg 85%
    18:00 +14°C° 0.5 mm 4 mps 740 mmHg 88%
    19:00 +13°C° 0.5 mm 4 mps 740 mmHg 91%
    20:00 +12°C° 0.5 mm 3 mps 740 mmHg 94%
    21:00 +12°C° 0 mm 3 mps 741 mmHg 95%
    22:00 +11°C° 0 mm 3 mps 741 mmHg 95%
    23:00 +12°C° 0 mm 2 mps 741 mmHg 96%

    Tomorrow, 6 June, Saturday

    Time Temperature Precipitation Wind Pressure Humidity
    00:00 +12°C° 0 mm 2 mps 741 mmHg 97%
    01:00 +10°C° 0 mm 2 mps 741 mmHg 97%
    02:00 +10°C° 0 mm 2 mps 742 mmHg 98%
    03:00 +12°C° 0 mm 2 mps 742 mmHg 98%
    04:00 +13°C° 0 mm 2 mps 742 mmHg 98%
    05:00 +14°C° 0 mm 2 mps 742 mmHg 98%
    06:00 +14°C° 0 mm 3 mps 742 mmHg 96%
    07:00 +16°C° 0 mm 3 mps 742 mmHg 94%
    08:00 +17°C° 0 mm 3 mps 743 mmHg 92%
    09:00 +19°C° 0.1 mm 4 mps 743 mmHg 87%
    10:00 +21°C° 0.1 mm 4 mps 743 mmHg 83%
    11:00 +22°C° 0.1 mm 4 mps 743 mmHg 78%
    12:00 +23°C° 0.1 mm 4 mps 743 mmHg 78%
    13:00 +23°C° 0.1 mm 4 mps 743 mmHg 77%
    14:00 +23°C° 0.1 mm 4 mps 743 mmHg 76%
    15:00 +23°C° 0.2 mm 4 mps 743 mmHg 79%
    16:00 +23°C° 0.2 mm 4 mps 743 mmHg 82%
    17:00 +22°C° 0.2 mm 3 mps 743 mmHg 86%
    18:00 +21°C° 0.7 mm 3 mps 743 mmHg 88%
    19:00 +20°C° 0.7 mm 3 mps 743 mmHg 89%
    20:00 +19°C° 0.7 mm 2 mps 743 mmHg 91%
    21:00 +19°C° 0.1 mm 2 mps 743 mmHg 92%
    22:00 +18°C° 0.1 mm 2 mps 744 mmHg 93%
    23:00 +17°C° 0.1 mm 2 mps 744 mmHg 94%

    Day after tomorrow, 7 June, Sunday

    Time Temperature Precipitation Wind Pressure Humidity
    00:00 +17°C° 0 mm 2 mps 744 mmHg 94%
    01:00 +16°C° 0 mm 2 mps 744 mmHg 94%
    02:00 +16°C° 0 mm 2 mps 745 mmHg 95%
    03:00 +16°C° 0 mm 2 mps 745 mmHg 95%
    04:00 +18°C° 0 mm 1 mps 745 mmHg 94%
    05:00 +18°C° 0 mm 1 mps 745 mmHg 94%
    06:00 +20°C° 0 mm 1 mps 746 mmHg 90%
    07:00 +21°C° 0 mm 1 mps 746 mmHg 85%
    08:00 +22°C° 0 mm 1 mps 746 mmHg 81%
    09:00 +23°C° 0 mm 1 mps 746 mmHg 76%
    10:00 +24°C° 0 mm 2 mps 746 mmHg 72%
    11:00 +25°C° 0 mm 2 mps 746 mmHg 67%
    12:00 +26°C° 0 mm 2 mps 746 mmHg 66%
    13:00 +26°C° 0 mm 2 mps 747 mmHg 64%
    14:00 +27°C° 0 mm 2 mps 747 mmHg 63%
    15:00 +26°C° 0 mm 2 mps 746 mmHg 66%
    16:00 +26°C° 0 mm 2 mps 746 mmHg 69%
    17:00 +26°C° 0 mm 2 mps 746 mmHg 72%
    18:00 +24°C° 0 mm 1 mps 746 mmHg 76%
    19:00 +22°C° 0 mm 1 mps 747 mmHg 81%
    20:00 +21°C° 0 mm 1 mps 747 mmHg 85%
    21:00 +20°C° 0 mm 1 mps 747 mmHg 87%
    22:00 +19°C° 0 mm 1 mps 747 mmHg 88%
    23:00 +19°C° 0 mm 1 mps 747 mmHg 90%

    8 June, Monday

    Time Temperature Precipitation Wind Pressure Humidity
    00:00 +18°C° 0 mm 1 mps 747 mmHg 90%
    01:00 +18°C° 0 mm 1 mps 747 mmHg 90%
    02:00 +18°C° 0 mm 1 mps 747 mmHg 91%
    03:00 +18°C° 0 mm 1 mps 747 mmHg 91%
    04:00 +19°C° 0 mm 1 mps 747 mmHg 91%
    05:00 +19°C° 0 mm 1 mps 747 mmHg 91%
    06:00 +20°C° 0 mm 2 mps 747 mmHg 87%
    07:00 +21°C° 0 mm 2 mps 747 mmHg 84%
    08:00 +24°C° 0 mm 2 mps 747 mmHg 81%
    09:00 +25°C° 0 mm 2 mps 747 mmHg 78%
    10:00 +26°C° 0 mm 3 mps 747 mmHg 74%
    11:00 +26°C° 0 mm 3 mps 747 mmHg 71%
    12:00 +27°C° 0.3 mm 3 mps 747 mmHg 72%
    13:00 +27°C° 0.3 mm 4 mps 747 mmHg 74%
    14:00 +27°C° 0.3 mm 4 mps 746 mmHg 75%
    15:00 +26°C° 0.2 mm 4 mps 746 mmHg 77%
    16:00 +26°C° 0.2 mm 4 mps 746 mmHg 79%
    17:00 +25°C° 0.2 mm 4 mps 746 mmHg 82%
    18:00 +23°C° 0 mm 4 mps 746 mmHg 85%
    19:00 +21°C° 0 mm 3 mps 746 mmHg 88%
    20:00 +20°C° 0 mm 3 mps 746 mmHg 90%
    21:00 +19°C° 0 mm 3 mps 746 mmHg 91%
    22:00 +18°C° 0 mm 3 mps 746 mmHg 92%
    23:00 +17°C° 0 mm 2 mps 746 mmHg 93%

    9 June, Tuesday

    Time Temperature Precipitation Wind Pressure Humidity
    00:00 +17°C° 0 mm 2 mps 746 mmHg 93%
    01:00 +17°C° 0 mm 2 mps 747 mmHg 94%
    02:00 +16°C° 0 mm 2 mps 747 mmHg 94%
    03:00 +17°C° 0 mm 2 mps 747 mmHg 93%
    04:00 +17°C° 0 mm 2 mps 747 mmHg 93%
    05:00 +18°C° 0 mm 2 mps 747 mmHg 92%
    06:00 +19°C° 0 mm 2 mps 747 mmHg 88%
    07:00 +21°C° 0 mm 2 mps 747 mmHg 83%
    08:00 +22°C° 0 mm 3 mps 747 mmHg 79%
    09:00 +24°C° 0 mm 3 mps 747 mmHg 76%
    10:00 +25°C° 0 mm 3 mps 747 mmHg 73%
    11:00 +25°C° 0 mm 3 mps 747 mmHg 70%
    12:00 +26°C° 0 mm 3 mps 747 mmHg 69%
    13:00 +26°C° 0 mm 3 mps 747 mmHg 68%
    14:00 +26°C° 0 mm 3 mps 747 mmHg 67%
    15:00 +26°C° 0.1 mm 3 mps 747 mmHg 69%
    16:00 +25°C° 0.1 mm 3 mps 747 mmHg 72%
    17:00 +25°C° 0.1 mm 2 mps 747 mmHg 74%
    18:00 +23°C° 0 mm 2 mps 747 mmHg 79%
    19:00 +21°C° 0 mm 2 mps 747 mmHg 85%
    20:00 +19°C° 0 mm 2 mps 747 mmHg 90%
    21:00 +19°C° 0 mm 2 mps 747 mmHg 91%
    22:00 +18°C° 0 mm 2 mps 747 mmHg 93%
    23:00 +18°C° 0 mm 2 mps 747 mmHg 94%

    10 June, Wednesday

    Time Temperature Precipitation Wind Pressure Humidity
    00:00 +18°C° 0 mm 1 mps 747 mmHg 94%
    01:00 +18°C° 0 mm 1 mps 747 mmHg 94%
    02:00 +18°C° 0 mm 1 mps 747 mmHg 94%
    03:00 +18°C° 0 mm 1 mps 747 mmHg 94%
    04:00 +19°C° 0 mm 1 mps 747 mmHg 93%
    05:00 +18°C° 0 mm 2 mps 748 mmHg 93%
    06:00 +20°C° 0 mm 2 mps 747 mmHg 88%
    07:00 +21°C° 0 mm 2 mps 747 mmHg 83%
    08:00 +24°C° 0 mm 2 mps 747 mmHg 79%
    09:00 +25°C° 0 mm 2 mps 747 mmHg 75%
    10:00 +25°C° 0 mm 2 mps 748 mmHg 71%
    11:00 +26°C° 0 mm 2 mps 748 mmHg 67%
    12:00 +27°C° 0 mm 2 mps 747 mmHg 66%
    13:00 +27°C° 0 mm 2 mps 747 mmHg 66%
    14:00 +27°C° 0 mm 2 mps 747 mmHg 65%
    15:00 +27°C° 0 mm 2 mps 747 mmHg 69%
    16:00 +27°C° 0 mm 2 mps 747 mmHg 72%
    17:00 +27°C° 0 mm 2 mps 747 mmHg 75%
    18:00 +25°C° 0.1 mm 2 mps 747 mmHg 80%
    19:00 +24°C° 0.1 mm 2 mps 747 mmHg 85%
    20:00 +21°C° 0.1 mm 2 mps 747 mmHg 90%
    21:00 +21°C° 0 mm 2 mps 747 mmHg 90%
    22:00 +21°C° 0 mm 1 mps 747 mmHg 90%
    23:00 +21°C° 0 mm 1 mps 747 mmHg 91%
    Show more